Your Météo : votre météo gratuite
Mes favoris météo

Observations météo à Eindhoven rnlafb (Pays-bas)




Tableau des observations (temps universel)

HeurePictosTempératureHumiditéVent dir.Vent vit.PressionVisbilité
23:46-4°C93%4km/h1025hpa2.1km
23:48-4°C93%4km/h1025hpa4.5km
23:55-4°C100%4km/h1025hpa4.8km
23:59-4°C93%4km/h1025hpa3.1km
00:09-4°C100%4km/h1025hpa1.2km
00:13-4°C100%4km/h1025hpa2.4km
00:16-3°C93%4km/h1025hpa4.3km
00:18-3°C93%4km/h1025hpa5.0km
00:25-3°C93%5km/h1025hpa6.0km
00:30-4°C93%8km/h1025hpa8.0km
00:47-3°C93%5km/h1025hpa7.0km
00:55-3°C93%5km/h1025hpa8.0km
00:58-2°C93%4km/h1025hpa7.0km
01:05-2°C93%4km/h1025hpa8.0km
01:18-2°C93%5km/h1025hpa8.0km
01:25-2°C93%5km/h1025hpa9.0km
01:55-2°C93%8km/h1025hpa9.0km
02:01-2°C93%9km/h1025hpa7.0km
02:03-1°C86%9km/h1025hpa8.0km
02:19-1°C86%9km/h1025hpa8.0km
02:25-2°C93%9km/h1025hpa8.0km
02:26-2°C93%9km/h1025hpa7.0km
02:55-2°C86%8km/h1025hpa7.0km
02:58-3°C93%8km/h1025hpa3.7km
03:06-2°C86%9km/h1025hpa6.0km
03:17-3°C93%9km/h1025hpa3.8km
03:18-3°C93%8km/h1025hpa3.5km
03:25-3°C93%8km/h1025hpa3.2km
03:41-2°C93%9km/h1025hpa4.5km
03:44-3°C93%9km/h1025hpa3.4km
03:50-3°C93%9km/h1025hpa3.8km
03:55-3°C93%9km/h1025hpa3.3km
04:00-3°C93%9km/h1025hpa4.5km
04:01-4°C93%8km/h1025hpa5.0km
04:14-3°C93%4km/h1025hpa7.0km
04:25-3°C93%4km/h1025hpa6.0km
04:55-4°C100%5km/h1025hpa6.0km
05:25-4°C100%8km/h1025hpa6.0km
05:55-4°C100%8km/h1025hpa6.0km
06:25-4°C93%8km/h1025hpa6.0km
06:55-4°C100%8km/h1025hpa6.0km
07:05-3°C93%8km/h1025hpa6.0km
07:17-3°C93%8km/h1025hpa6.0km
07:25-3°C93%8km/h1025hpa6.0km
07:35-3°C93%8km/h1025hpa6.0km




Nos rubriques phares
La météo sur votre site web
Modélisations numériques
Météo des neiges par ville Les stations à proximité
Weelde (mil) ( 27 km )
Volkel rnlafb ( 30 km )
Balen-keiheuvel ( 32 km )
Kleine-brogel(ba ( 32 km )
Gilze-rijen rnla ( 35 km )
Genk/zwartberg ( 49 km )
Schaffen ( 53 km )
Hasselt kivit ( 54 km )
Niederrhein ( 56 km )
Laarbruch (raf) ( 56 km )